• în România
  • Lista ţărilor
  • Pe 7 zile
  • Temperatura apei
  • Hartă satelitară
  • Meteo pe hartă
  • Widget-uri
  • user-avatar
    Intrare

    Meteo pe oră la Mayrhofen

    Astăzi, 28 Mai, Duminică

    Timp Temperatura Precipitaţii Vânt Presiune Umiditate
    00:00 +6°C° 0 mm 1 m/s 620 mmHg 95%
    01:00 +5°C° 0 mm 1 m/s 619 mmHg 94%
    02:00 +4°C° 0 mm 1 m/s 619 mmHg 93%
    03:00 +4°C° 0 mm 1 m/s 619 mmHg 92%
    04:00 +4°C° 0 mm 1 m/s 619 mmHg 91%
    05:00 +7°C° 0 mm 1 m/s 620 mmHg 86%
    06:00 +10°C° 0 mm 1 m/s 622 mmHg 81%
    07:00 +13°C° 0 mm 1 m/s 623 mmHg 72%
    08:00 +15°C° 0 mm 1 m/s 624 mmHg 62%
    09:00 +16°C° 0 mm 0 m/s 624 mmHg 52%
    10:00 +18°C° 0 mm 0 m/s 625 mmHg 42%
    11:00 +20°C° 0 mm 1 m/s 625 mmHg 40%
    12:00 +21°C° 0 mm 1 m/s 625 mmHg 38%
    13:00 +22°C° 0 mm 1 m/s 625 mmHg 36%
    14:00 +21°C° 0,1 mm 1 m/s 625 mmHg 38%
    15:00 +21°C° 0,1 mm 1 m/s 625 mmHg 41%
    16:00 +21°C° 0,1 mm 1 m/s 624 mmHg 44%
    17:00 +19°C° 0,1 mm 1 m/s 624 mmHg 56%
    18:00 +16°C° 0,1 mm 1 m/s 623 mmHg 68%
    19:00 +14°C° 0,1 mm 1 m/s 622 mmHg 80%
    20:00 +11°C° 0 mm 1 m/s 621 mmHg 84%
    21:00 +9°C° 0 mm 1 m/s 620 mmHg 88%
    22:00 +6°C° 0 mm 1 m/s 619 mmHg 92%
    23:00 +7°C° 0 mm 1 m/s 620 mmHg 91%

    Mâine, 29 Mai, Luni

    Timp Temperatura Precipitaţii Vânt Presiune Umiditate
    00:00 +7°C° 0 mm 1 m/s 620 mmHg 90%
    01:00 +8°C° 0 mm 1 m/s 620 mmHg 89%
    02:00 +7°C° 0 mm 1 m/s 619 mmHg 90%
    03:00 +7°C° 0 mm 1 m/s 619 mmHg 90%
    04:00 +7°C° 0 mm 1 m/s 619 mmHg 91%
    05:00 +9°C° 0 mm 1 m/s 620 mmHg 86%
    06:00 +11°C° 0 mm 1 m/s 620 mmHg 81%
    07:00 +14°C° 0 mm 1 m/s 621 mmHg 76%
    08:00 +16°C° 0 mm 1 m/s 622 mmHg 65%
    09:00 +17°C° 0 mm 0 m/s 623 mmHg 55%
    10:00 +19°C° 0 mm 0 m/s 623 mmHg 45%
    11:00 +22°C° 0 mm 1 m/s 623 mmHg 44%
    12:00 +22°C° 0 mm 1 m/s 623 mmHg 42%
    13:00 +23°C° 0 mm 1 m/s 623 mmHg 40%
    14:00 +22°C° 0,2 mm 1 m/s 622 mmHg 45%
    15:00 +21°C° 0,2 mm 1 m/s 622 mmHg 49%
    16:00 +21°C° 0,2 mm 1 m/s 621 mmHg 54%
    17:00 +19°C° 0,4 mm 1 m/s 621 mmHg 64%
    18:00 +16°C° 0,4 mm 1 m/s 620 mmHg 74%
    19:00 +15°C° 0,4 mm 1 m/s 620 mmHg 83%
    20:00 +13°C° 0,2 mm 1 m/s 619 mmHg 87%
    21:00 +11°C° 0,2 mm 1 m/s 618 mmHg 91%
    22:00 +9°C° 0,2 mm 1 m/s 618 mmHg 95%
    23:00 +9°C° 0,3 mm 1 m/s 618 mmHg 95%

    Poimâine, 30 Mai, Marţi

    Timp Temperatura Precipitaţii Vânt Presiune Umiditate
    00:00 +9°C° 0,3 mm 1 m/s 618 mmHg 95%
    01:00 +9°C° 0,3 mm 1 m/s 618 mmHg 95%
    02:00 +8°C° 0,1 mm 1 m/s 618 mmHg 95%
    03:00 +8°C° 0,1 mm 1 m/s 618 mmHg 95%
    04:00 +8°C° 0,1 mm 1 m/s 617 mmHg 96%
    05:00 +10°C° 0,1 mm 1 m/s 618 mmHg 93%
    06:00 +11°C° 0,1 mm 1 m/s 619 mmHg 90%
    07:00 +13°C° 0,1 mm 1 m/s 620 mmHg 87%
    08:00 +15°C° 0,1 mm 1 m/s 620 mmHg 80%
    09:00 +16°C° 0,1 mm 1 m/s 621 mmHg 73%
    10:00 +19°C° 0,1 mm 1 m/s 622 mmHg 66%
    11:00 +19°C° 0,6 mm 1 m/s 622 mmHg 68%
    12:00 +19°C° 0,6 mm 1 m/s 622 mmHg 69%
    13:00 +19°C° 0,6 mm 1 m/s 622 mmHg 70%
    14:00 +19°C° 1,4 mm 1 m/s 621 mmHg 73%
    15:00 +19°C° 1,4 mm 1 m/s 621 mmHg 76%
    16:00 +18°C° 1,4 mm 1 m/s 621 mmHg 78%
    17:00 +16°C° 1,8 mm 1 m/s 621 mmHg 83%
    18:00 +15°C° 1,8 mm 1 m/s 620 mmHg 88%
    19:00 +13°C° 1,8 mm 0 m/s 620 mmHg 93%
    20:00 +13°C° 1,5 mm 1 m/s 620 mmHg 95%
    21:00 +12°C° 1,5 mm 1 m/s 620 mmHg 96%
    22:00 +11°C° 1,5 mm 1 m/s 620 mmHg 98%
    23:00 +11°C° 0,6 mm 1 m/s 620 mmHg 98%

    31 Mai, Miercuri

    Timp Temperatura Precipitaţii Vânt Presiune Umiditate
    00:00 +10°C° 0,6 mm 1 m/s 620 mmHg 97%
    01:00 +10°C° 0,6 mm 1 m/s 620 mmHg 97%
    02:00 +10°C° 0,1 mm 1 m/s 619 mmHg 97%
    03:00 +9°C° 0,1 mm 1 m/s 619 mmHg 97%
    04:00 +9°C° 0,1 mm 1 m/s 619 mmHg 97%
    05:00 +10°C° 0,1 mm 1 m/s 620 mmHg 95%
    06:00 +11°C° 0,1 mm 1 m/s 620 mmHg 93%
    07:00 +11°C° 0,1 mm 0 m/s 621 mmHg 91%
    08:00 +13°C° 0,2 mm 1 m/s 621 mmHg 86%
    09:00 +15°C° 0,2 mm 1 m/s 622 mmHg 80%
    10:00 +16°C° 0,2 mm 1 m/s 622 mmHg 75%
    11:00 +16°C° 0,7 mm 1 m/s 622 mmHg 75%
    12:00 +18°C° 0,7 mm 1 m/s 622 mmHg 75%
    13:00 +18°C° 0,7 mm 1 m/s 622 mmHg 74%
    14:00 +16°C° 1,1 mm 1 m/s 621 mmHg 77%
    15:00 +16°C° 1,1 mm 1 m/s 621 mmHg 79%
    16:00 +15°C° 1,1 mm 1 m/s 621 mmHg 81%
    17:00 +14°C° 1,5 mm 1 m/s 620 mmHg 85%
    18:00 +13°C° 1,5 mm 1 m/s 620 mmHg 89%
    19:00 +12°C° 1,5 mm 1 m/s 620 mmHg 94%
    20:00 +11°C° 0,9 mm 1 m/s 620 mmHg 95%
    21:00 +11°C° 0,9 mm 1 m/s 619 mmHg 97%
    22:00 +10°C° 0,9 mm 1 m/s 619 mmHg 98%
    23:00 +9°C° 0,8 mm 0 m/s 619 mmHg 98%

    1 Iunie, Joi

    Timp Temperatura Precipitaţii Vânt Presiune Umiditate
    00:00 +8°C° 0,8 mm 0 m/s 619 mmHg 98%
    01:00 +8°C° 0,8 mm 0 m/s 619 mmHg 98%
    02:00 +8°C° 0,8 mm 0 m/s 618 mmHg 99%
    03:00 +8°C° 0,8 mm 0 m/s 618 mmHg 99%
    04:00 +7°C° 0,8 mm 0 m/s 618 mmHg 99%
    05:00 +9°C° 1 mm 1 m/s 618 mmHg 97%
    06:00 +9°C° 1 mm 1 m/s 619 mmHg 96%
    07:00 +10°C° 1 mm 1 m/s 619 mmHg 94%
    08:00 +11°C° 1 mm 1 m/s 619 mmHg 91%
    09:00 +11°C° 1 mm 1 m/s 620 mmHg 89%
    10:00 +11°C° 1 mm 1 m/s 620 mmHg 86%
    11:00 +12°C° 0,8 mm 1 m/s 620 mmHg 85%
    12:00 +12°C° 0,8 mm 1 m/s 620 mmHg 84%
    13:00 +12°C° 0,8 mm 1 m/s 620 mmHg 83%
    14:00 +12°C° 0,4 mm 1 m/s 620 mmHg 83%
    15:00 +12°C° 0,4 mm 1 m/s 620 mmHg 83%
    16:00 +12°C° 0,4 mm 1 m/s 620 mmHg 84%
    17:00 +12°C° 0,1 mm 1 m/s 619 mmHg 87%
    18:00 +11°C° 0,1 mm 1 m/s 619 mmHg 90%
    19:00 +11°C° 0,1 mm 1 m/s 619 mmHg 93%
    20:00 +9°C° 0 mm 1 m/s 619 mmHg 94%
    21:00 +8°C° 0 mm 1 m/s 619 mmHg 96%
    22:00 +6°C° 0 mm 0 m/s 618 mmHg 98%
    23:00 +5°C° 0 mm 0 m/s 618 mmHg 98%

    2 Iunie, Vineri

    Timp Temperatura Precipitaţii Vânt Presiune Umiditate
    00:00 +5°C° 0 mm 0 m/s 618 mmHg 98%
    01:00 +4°C° 0 mm 0 m/s 617 mmHg 98%
    02:00 +3°C° 0 mm 0 m/s 617 mmHg 98%
    03:00 +3°C° 0 mm 0 m/s 616 mmHg 98%
    04:00 +2°C° 0 mm 0 m/s 616 mmHg 98%
    05:00 +5°C° 0 mm 0 m/s 617 mmHg 93%
    06:00 +7°C° 0 mm 0 m/s 618 mmHg 89%
    07:00 +10°C° 0 mm 0 m/s 619 mmHg 84%
    08:00 +11°C° 0 mm 0 m/s 620 mmHg 75%
    09:00 +14°C° 0 mm 1 m/s 621 mmHg 65%
    10:00 +16°C° 0 mm 1 m/s 621 mmHg 55%
    11:00 +18°C° 0 mm 1 m/s 621 mmHg 55%
    12:00 +18°C° 0 mm 1 m/s 621 mmHg 54%
    13:00 +17°C° 0 mm 2 m/s 621 mmHg 54%
    14:00 +17°C° 0,3 mm 2 m/s 621 mmHg 59%
    15:00 +16°C° 0,4 mm 2 m/s 620 mmHg 65%
    16:00 +15°C° 0,4 mm 2 m/s 620 mmHg 70%
    17:00 +14°C° 0,3 mm 2 m/s 620 mmHg 77%
    18:00 +13°C° 0,3 mm 1 m/s 619 mmHg 83%
    19:00 +12°C° 0,3 mm 1 m/s 619 mmHg 89%
    20:00 +10°C° 0,1 mm 1 m/s 618 mmHg 92%
    21:00 +8°C° 0,1 mm 1 m/s 618 mmHg 95%
    22:00 +4°C° 0,1 mm 0 m/s 617 mmHg 98%
    23:00 +4°C° 0 mm 0 m/s 617 mmHg 98%
    Arată mai mult